Location: Gettysburg
(39.8310°N, 77.2310°W)
Time: 09:32:04
(UTC-04:00)

ATLAS 2AS CENTAUR R/B - Visible Passes

Search period start: 16 August 2017 00:00
Search period end: 26 August 2017 00:00
Orbit: 908 x 1304 km, 63.7° (Epoch: 14 August)

Date Brightness Start Highest point End Pass type
(mag) Time Alt. Az. Time Alt. Az. Time Alt. Az.
16 Aug 5.1 01:02:54 10° WNW 01:08:46 22° NNW 01:14:47 10° NNE visible
16 Aug 5.7 03:00:37 10° NNW 03:03:24 12° N 03:06:10 10° NNE visible
16 Aug 5.5 04:52:55 10° NNW 04:58:14 18° NNE 05:03:24 10° ENE visible
16 Aug 4.2 20:37:09 10° SE 20:41:30 16° ESE 20:45:59 10° ENE visible
16 Aug 2.9 22:23:38 10° SSW 22:31:17 83° ESE 22:39:25 10° NE visible
17 Aug 4.7 00:16:37 10° W 00:23:15 29° NW 00:30:07 10° NNE visible
17 Aug 5.6 02:14:02 10° NW 02:17:25 13° N 02:20:49 10° NNE visible
17 Aug 5.6 04:08:11 10° NNW 04:12:28 15° NNE 04:16:40 10° NE visible
17 Aug 3.0 21:39:13 10° S 21:46:34 56° ESE 21:54:24 10° NE visible
17 Aug 4.2 23:30:43 10° WSW 23:37:55 39° NW 23:45:27 10° NNE visible
18 Aug 5.5 01:27:10 10° NW 01:31:31 15° NNW 01:35:54 10° NNE visible
18 Aug 5.7 03:23:15 10° NNW 03:26:33 13° N 03:29:50 10° NE visible
18 Aug 5.1 05:13:59 10° NNW 05:20:44 28° NE 05:27:08 10° E visible
18 Aug 3.5 20:55:19 10° S 21:02:01 36° ESE 21:09:08 10° NE visible
18 Aug 3.7 22:45:12 10° SW 22:52:44 55° NW 23:00:44 10° NNE visible
19 Aug 5.3 00:40:24 10° WNW 00:45:44 19° NNW 00:51:10 10° NNE visible
19 Aug 5.7 02:37:49 10° NNW 02:40:34 12° N 02:43:19 10° NNE visible
19 Aug 5.4 04:29:19 10° NNW 04:35:13 21° NNE 04:40:52 10° ENE visible
19 Aug 3.1 22:00:05 10° SW 22:07:46 80° NW 22:15:56 10° NNE visible
19 Aug 5.0 23:53:55 10° W 00:00:07 24° NNW 00:06:30 10° NNE visible
20 Aug 5.8 01:51:37 10° NNW 01:54:34 12° N 01:57:31 10° NNE visible
20 Aug 5.6 03:44:38 10° NNW 03:49:31 17° NNE 03:54:17 10° ENE visible
20 Aug 4.2 05:35:04 10° NNW 05:42:46 47° NE 05:49:56 10° ESE visible
20 Aug 3.0 21:15:24 10° SSW 21:22:57 71° ESE 21:31:01 10° NE visible
20 Aug 4.6 23:07:47 10° WSW 23:14:41 32° NW 23:21:50 10° NNE visible
21 Aug 5.7 01:04:51 10° NW 01:08:37 14° NNW 01:12:23 10° NNE visible
21 Aug 5.7 02:59:49 10° NNW 03:03:41 14° NNE 03:07:29 10° NE visible
21 Aug 4.7 04:50:22 10° NNW 04:57:32 34° NE 05:04:16 10° ESE visible
21 Aug 3.3 20:31:10 10° S 20:38:19 47° ESE 20:45:55 10° NE visible
21 Aug 4.1 22:22:02 10° WSW 22:29:24 45° NW 22:37:09 10° NNE visible
22 Aug 5.5 00:18:00 10° WNW 00:22:45 16° NNW 00:27:34 10° NNE visible
22 Aug 5.8 02:14:43 10° NNW 02:17:44 12° N 02:20:44 10° NNE visible
22 Aug 5.1 04:05:42 10° NNW 04:12:07 25° NE 04:18:14 10° E visible
22 Aug 3.2 05:56:19 10° NNW 06:04:21 85° ENE 06:11:44 10° SE visible
22 Aug 3.5 21:36:41 10° SW 21:44:19 64° NW 21:52:25 10° NNE visible
22 Aug 5.3 23:31:20 10° WNW 23:37:03 21° NNW 23:42:53 10° NNE visible
23 Aug 5.8 01:29:00 10° NNW 01:31:44 12° N 01:34:29 10° NNE visible
23 Aug 5.4 03:21:02 10° NNW 03:26:32 19° NNE 03:31:50 10° ENE visible
23 Aug 3.7 05:11:30 10° NNW 05:19:25 59° NE 05:26:43 10° SE visible
23 Aug 3.1 20:51:44 10° SSW 20:59:24 89° ESE 21:07:34 10° NE visible
23 Aug 5.0 22:44:59 10° W 22:51:30 27° NW 22:58:13 10° NNE visible
24 Aug 5.8 00:42:30 10° NNW 00:45:45 13° N 00:49:00 10° NNE visible
24 Aug 5.6 02:36:18 10° NNW 02:40:46 15° NNE 02:45:08 10° NE visible
24 Aug 4.3 04:26:46 10° NNW 04:34:16 41° NE 04:41:17 10° ESE visible
24 Aug 3.1 20:07:14 10° SSW 20:14:39 60° ESE 20:22:35 10° NE visible
24 Aug 4.5 21:59:00 10° WSW 22:06:07 37° NW 22:13:33 10° NNE visible
24 Aug 5.7 23:55:40 10° NW 23:59:50 15° NNW 00:04:01 10° NNE visible
25 Aug 5.7 01:51:25 10° NNW 01:54:53 13° NNE 01:58:19 10° NE visible
25 Aug 4.8 03:42:05 10° NNW 03:48:58 30° NE 03:55:28 10° E visible
25 Aug 2.9 05:32:51 10° NW 05:40:49 77° WSW 05:48:07 10° SSE visible
25 Aug 3.9 21:13:25 10° SW 21:20:55 52° NW 21:28:51 10° NNE visible
25 Aug 5.5 23:08:51 10° WNW 23:14:02 18° NNW 23:19:16 10° NNE visible
